Location: Bogotá
(4.6533°N, 74.0837°W)
Time: 22:13:34
(UTC+00:00)

ISS - Pass Details

Date: 11 April 2026
Orbit: 416 x 425 km, 51.6° (Epoch: 18 April)

Event Time Altitude Azimuth Distance (km) Brightness Sun altitude
Exits shadow 10:10:38 14° 236° (WSW) 1,256 -1.9 -10.8°
Maximum altitude 10:13:14 43° 306° (NW) 593 -3.3 -10.2°
Drops below altitude 10° 10:16:26 10° 19° (NNE) 1,488 -0.6 -9.4°
Sets 10:18:35 0° 26° (NNE) 2,351 0.6 -8.9°
